Weather Roundup
Issued by NWS

Home | Current Version | Previous Version | Graphics & Text | Print | Product List | Glossary Off
Versions: 1 2 3 4 5 6 7 8 9 10 11 12 13 14 15 16 17 18 19 20 21 22 23 24 25 26 27 28 29 30 31 32 33 34 35 36 37 38 39 40 41 42 43 44 45 46 47 48 49 50

000
NZUS93 KARX 222159
HRRWXR

CURRENT HOURLY OBSERVATIONS ACROSS
MUCH OF THE UPPER MISSISSIPPI VALLEY
NATIONAL WEATHER SERVICE LA CROSSE WI
500 PM CDT FRI AUG 22 2014


...SOUTHEAST MINNESOTA...


CITY           SKY/WX    TMP DP  RH WIND       PRES   REMARKS
ROCHESTER      SUNNY     83  70  64 NW3       29.97R
ROCHESTER/MAYO FAIR      83  66  57 W5        29.95S
WINONA         MOSUNNY   82  70  65 NW7       29.92S
AUSTIN         SUNNY     82  72  69 N3        29.95S
ALBERT LEA     SUNNY     82  70  65 N5        29.96S
DODGE CENTER   SUNNY     81  70  69 N5        29.97S
PRESTON        MOSUNNY   83  76  80 N5        29.96S HX  92
OWATONNA       SUNNY     82  68  61 W3        29.96S
FARIBAULT      PTSUNNY   84  64  51 NW3       29.96S
$$

...ELSEWHERE IN MINNESOTA...


CITY           SKY/WX    TMP DP  RH WIND       PRES   REMARKS
MINNEAPOLIS    CLOUDY    78  68  71 NW9       29.97R
INTNL FALLS    CLOUDY    73  65  75 NE7       30.02R
DULUTH         CLOUDY    66  61  84 SE5       30.02R
RED WING       MOSUNNY   82  70  65 N6        29.94R
REDWOOD FALLS  MOSUNNY   86  69  56 NE7       29.96S HX  90
MANKATO        MOSUNNY   82  66  57 N3        29.96S
WORTHINGTON      N/A     81  68  65 E3        30.00S
FAIRMONT       MOSUNNY   72  64  78 CALM      29.97S
$$

...SOUTHWEST WISCONSIN...


CITY           SKY/WX    TMP DP  RH WIND       PRES   REMARKS
LA CROSSE      MOSUNNY   85  74  69 SE3       29.91S HX  92
PRAIRIE DU CHI PTSUNNY   88  71  56 S3        29.90S HX  93
BOSCOBEL       SUNNY     92  72  51 CALM      29.90F HX  99
LONE ROCK      NOT AVBL
PLATTEVILLE    SUNNY     87  77  72 W5        29.94S HX  98
FORT MC COY    MOSUNNY   84  72  68 NW6       29.93S
VIROQUA        FAIR      85  75  71 NW6       29.95S HX  93
WIS DELLS      SUNNY     87  69  54 CALM      29.93R HX  91
$$

...ELSEWHERE IN WISCONSIN...


CITY           SKY/WX    TMP DP  RH WIND       PRES   REMARKS
MILWAUKEE      PTSUNNY   74  70  87 NE7       29.95R
MADISON        MOSUNNY   88  71  57 SW3       29.92S HX  94
GREEN BAY      MOSUNNY   83  74  74 VRB7      29.95R
EAU CLAIRE     NOT AVBL
BLACK RVR FLS  MOCLDY    84  73  67 W3        29.92S HX  90
MEDFORD        SUNNY     79  73  81 CALM      29.95F
WAUSAU         MOSUNNY   81  73  76 NW8       29.94S
WIS RAPIDS     MOSUNNY   86  73  65 W9        29.95R HX  93
MARSHFIELD     MOSUNNY   83  73  72 SW3       29.95R
RICE LAKE      CLOUDY    75  69  81 N5        29.99R
$$

...NORTHEAST IOWA...


CITY           SKY/WX    TMP DP  RH WIND       PRES   REMARKS
WATERLOO       PTSUNNY   82  70  66 N10G20    29.92R THUNDER
DUBUQUE        MOSUNNY   85  77  77 SW5       29.94S HX  95
DECORAH        PTSUNNY   82  77  83 NW7       29.93F HX  91
MASON CITY     MOSUNNY   87  72  60 NE5       29.96S HX  93
CHARLES CITY   PTSUNNY   84  77  79 CALM      29.95S HX  94
OELWEIN        PTSUNNY   86  77  74 CALM      29.93F HX  97
$$

...ELSEWHERE IN IOWA...


CITY           SKY/WX    TMP DP  RH WIND       PRES   REMARKS
DES MOINES     PTSUNNY   88  77  69 S7        29.90F HX 100
IOWA CITY      CLOUDY    83  76  79 S3        29.92F HX  91
FORT DODGE     MOSUNNY   84  72  65 NE8       29.93F
MARSHALLTOWN   PTSUNNY   87  75  67 S3        29.91F HX  96
CEDAR RAPIDS   CLOUDY    83  76  79 S6        29.91F HX  91
$$

...NORTHERN ILLINOIS...


CITY           SKY/WX    TMP DP  RH WIND       PRES   REMARKS
CHICAGO-OHARE  PTSUNNY   86  70  58 SW5       29.92S HX  90
DUPAGE         MOSUNNY   84  74  71 W9        29.94R HX  91
CHICAGO-MIDWAY PTSUNNY   86  72  62 W9        29.93R HX  92
MOLINE         SUNNY     88  73  61 S6        29.91F HX  95
ROCKFORD       PTSUNNY   82  74  76 SW7       29.95R
STERLING       MOSUNNY   86  75  70 NW5       29.93F HX  95
PEORIA         MOSUNNY   88  74  63 SW5       29.94R HX  96
$$

NOTE: "FAIR" INDICATES FEW OR NO CLOUDS BELOW 12,000 FEET WITH NO
SIGNIFICANT WEATHER AND/OR OBSTRUCTIONS TO VISIBILITY. WIND
SPEEDS ARE IN MILES-PER-HOUR.



USA.gov is the U.S. government's official web portal to all federal, state and local government web resources and services.